Vertical_Velocity
0 -0 -0 -0 -1 -1 -1 -1 -1 -0 -1 -1 -1 0 0 -1 -1 -1 -1 -0 -1 -1 -1 -1 -1 -2 -2 -2 -3 -2 -2 -1 -1 -1 -1 -1 -0 -0 -1 -1 -1 -1 -1
-1 0 0 1 -0 -1 -1 -1 -1 -0 -0 -1 -0 -0 -0 -0 -0 -0 -1 -0 -0 -1 -1 -0 -0 -0 -0 -1 -1 -2 -2 -2 -2 -2 -2 -2 -2 -2 -2 -2 -2 -2 -2
-1 -0 0 0 1 -1 -1 -0 -1 -0 1 -1 -0 -1 -0 -1 -0 -1 -1 -1 -1 -0 -0 -0 -0 -0 -0 0 0 -0 -1 -0 0 1 0 -1 -1 -1 -1 -2 -2 -2 -2
-0 -0 -0 0 0 -0 -1 0 0 -1 -1 -0 0 -1 -2 -0 -2 -1 -1 -1 -1 -0 0 0 -0 -0 -0 0 0 0 -1 -1 -0 -1 -0 -1 1 0 3 2 2 2 1
-0 -0 1 -0 -0 -1 -1 -0 -0 -0 -1 0 -0 -1 -1 -1 -1 -0 0 -1 -0 -0 0 -0 -0 -0 -1 -1 -1 -1 0 1 -0 -0 -1 -0 -1 0 -1 0 -0 -0 -0
-0 -0 -0 -0 -1 -1 -0 0 -0 -0 -0 -1 -1 -1 -0 -1 -0 -1 -1 0 -1 -0 1 0 -1 -1 -0 -1 -1 -1 -0 -0 -0 -0 -1 -0 -1 -1 -2 -1 -0 -1 -1
-0 -0 -0 -1 -0 -1 -1 0 -1 -1 0 -0 1 -1 -1 -2 -0 -0 -0 1 0 -1 1 0 -1 -0 0 -1 -1 -0 -2 -1 -1 -0 -0 -0 -1 -0 -1 -1 -2 -3 -0
-0 -0 0 0 1 0 0 0 0 -0 0 -0 0 -0 -1 -1 -1 -0 -1 -1 0 -1 -0 -0 0 -0 -1 -1 -1 -1 -2 -1 -1 -1 -1 1 -1 -1 -1 -1 -1 -1 0
-1 -0 0 -0 -1 -1 1 -0 -0 -0 -0 -0 -0 -0 -0 0 -0 0 -0 -1 0 -0 -1 0 -0 -0 -1 -0 -0 -0 1 -0 -1 -0 -1 -0 0 -0 -0 -1 -2 1 -0
-0 -1 -0 0 -0 -1 -1 -1 -0 -1 0 -0 -0 -1 0 -1 -0 0 1 -1 -0 -0 -1 -0 -0 0 0 0 -0 -1 -2 -2 -1 -1 -1 -2 -1 -2 -1 -0 -1 1 0
-1 -1 -2 0 1 -1 0 -1 0 1 -2 -1 -1 -0 -1 -1 -0 0 1 1 0 0 -0 -0 -0 0 -1 -2 0 -0 -0 -0 -0 0 -1 -1 -2 -2 -2 -2 -2 -1 0
-1 -1 -1 -1 0 1 0 -2 0 -2 0 0 -0 -0 0 -1 -0 -1 -0 0 0 1 -0 -1 -1 -0 -1 -0 1 -1 -1 -2 -2 -2 -2 -3 -2 -2 -2 -2 -2 -4 -2
-2 -3 -2 -1 -2 -2 -1 -1 -2 0 1 0 0 -0 -0 0 -0 -0 0 -0 -1 -0 -0 -0 0 0 0 -0 -1 -2 -2 -2 -2 -2 -2 -2 -3 -3 -2 -2 -2 -2 -4
-1 -1 -2 1 0 -1 -1 -0 0 1 1 1 0 -0 0 0 0 -1 -0 0 0 0 0 -0 0 1 -0 -1 -2 -2 -2 -3 -2 -1 -3 -3 -3 -3 -3 -4 -5 -5 -1
-0 -0 -1 -0 -1 -0 -1 -1 -1 1 1 0 0 0 0 0 -0 -0 -1 -0 -0 0 -0 -0 1 -0 -0 -1 -2 -1 -2 -2 -3 -3 -3 -3 -4 -4 -5 -5 -3 -1 -1
-0 -0 -1 -1 -2 -1 -1 -1 -0 1 1 1 0 -0 1 0 -1 -0 -0 0 -1 0 0 -0 -1 -1 -1 -2 -1 -3 -2 -3 -3 -3 -4 -3 -3 -5 -4 -3 -3 -3 -2
0 1 1 -0 -1 -1 -1 -1 -0 0 0 -1 -1 1 -0 -1 -0 0 -0 1 0 0 -0 0 -0 -0 -1 -1 -1 -1 -2 -2 -3 -4 -3 -3 -2 -5 -3 -2 -3 -1 -3
0 0 0 -1 -0 -1 -1 -0 -1 -1 0 -0 -1 -0 -1 -0 -0 -0 0 0 -1 -0 -1 -1 -0 -1 -1 -1 -1 -2 -1 -3 -3 -3 -4 -3 -3 1 -3 -2 -3 -2 -2
-0 0 0 -1 -1 -1 -0 -0 -1 -1 -2 -0 0 -1 -1 -0 -0 -0 0 -1 -1 -1 -1 -1 -1 -0 -0 -1 -2 -2 -3 -2 -2 -4 -2 -1 -1 -2 -1 -4 -3 -2 -1
1 2 1 -1 -1 -1 -1 0 -0 -1 -1 -1 -1 -1 0 -0 0 0 -0 -1 -0 -1 -1 -1 -1 0 -1 -2 -1 -1 -1 -2 -3 -2 -1 -1 -2 -1 -2 -2 -1 -2 -1
2 0 -1 -0 -0 -1 -1 0 -0 -0 -1 -1 -1 -0 -0 -0 0 -0 -0 -1 -1 -1 -1 -1 -1 -3 -2 -2 -1 -0 -4 -2 -4 -3 -3 -3 -1 -2 -2 -3 -3 1 -2
-0 1 1 1 -0 -0 -0 -1 -1 0 0 -1 -0 -0 -1 -0 -1 -1 -1 -1 0 -0 -1 -2 -1 -2 -2 -3 -2 -3 -5 2 -6 -2 -2 -2 -2 -1 -2 -2 -2 -2 -1
1 0 0 -1 2 -0 -2 -2 -2 0 1 0 -1 -1 -1 -1 -1 0 0 -0 -0 -0 -1 -0 -2 -1 -2 -3 -4 -3 -4 -6 -0 -4 -2 -4 -2 -2 -1 -1 -2 -2 -1
-1 -4 0 -1 -1 1 -2 -3 -2 -1 -0 -1 -0 -1 -1 -0 0 -0 0 0 -1 -1 -1 -1 -1 -2 -2 -2 -4 -6 -5 -3 -3 0 -1 -2 -3 -2 -1 -0 -2 -1 -1
-3 2 2 5 2 -2 -3 -2 -3 -2 -1 -1 1 -0 -0 -1 -0 -0 -0 -0 -1 -0 -1 -1 -2 -2 -2 -2 -3 -4 -2 -2 -3 -4 -3 1 -0 -5 -3 -1 -1 -0 -2
-0 4 1 -1 -1 -1 -2 -4 -1 -1 -0 1 -0 0 -0 -1 -1 -0 1 1 -0 -2 -1 -0 -1 -2 -2 -2 -3 -2 -1 -2 -0 -1 -3 -1 -2 2 0 -1 -0 -1 -1
Height
5868 5868 5869 5870 5870 5871 5872 5873 5874 5875 5875 5876 5877 5877 5877 5877 5877 5877 5876 5876 5876 5875 5875 5874 5874 5873 5873 5872 5871 5870 5869 5868 5867 5866 5865 5864 5863 5862 5861 5860 5859 5858 5857
5866 5867 5868 5869 5870 5871 5872 5873 5875 5875 5875 5876 5877 5877 5877 5877 5877 5877 5876 5876 5876 5876 5875 5874 5874 5873 5872 5871 5870 5869 5868 5868 5867 5865 5864 5863 5863 5862 5860 5859 5858 5856 5855
5864 5866 5867 5868 5869 5870 5871 5872 5874 5875 5875 5876 5877 5877 5877 5877 5877 5876 5876 5876 5876 5875 5875 5874 5874 5873 5872 5871 5870 5869 5869 5868 5867 5865 5864 5863 5861 5860 5859 5857 5855 5853 5852
5863 5864 5865 5866 5868 5869 5870 5872 5873 5875 5876 5876 5876 5877 5877 5876 5877 5877 5876 5876 5876 5876 5875 5874 5873 5872 5872 5871 5870 5869 5868 5867 5865 5864 5863 5861 5860 5858 5856 5853 5851 5849 5847
5861 5863 5864 5865 5867 5868 5870 5872 5873 5874 5875 5875 5875 5876 5876 5876 5876 5876 5876 5876 5875 5876 5875 5874 5873 5872 5871 5870 5870 5869 5868 5866 5865 5863 5861 5858 5856 5854 5851 5849 5847 5844 5842
5859 5861 5862 5863 5865 5867 5868 5871 5872 5874 5874 5875 5875 5875 5876 5875 5875 5875 5876 5876 5875 5875 5874 5873 5872 5871 5870 5869 5868 5867 5866 5865 5863 5861 5859 5856 5854 5851 5848 5845 5842 5839 5837
5858 5859 5860 5862 5864 5865 5867 5869 5871 5873 5874 5874 5874 5874 5875 5875 5875 5875 5874 5874 5874 5873 5873 5872 5872 5870 5869 5868 5867 5865 5864 5862 5860 5858 5855 5852 5849 5846 5843 5840 5837 5834 5831
5857 5857 5859 5861 5863 5864 5866 5868 5870 5871 5873 5873 5873 5874 5874 5873 5874 5873 5873 5873 5873 5872 5872 5871 5870 5869 5868 5866 5865 5863 5861 5859 5856 5854 5851 5848 5844 5841 5838 5835 5831 5827 5824
5855 5857 5858 5860 5862 5863 5865 5867 5868 5870 5871 5871 5872 5872 5873 5872 5872 5872 5872 5872 5871 5871 5870 5869 5868 5867 5866 5865 5863 5861 5859 5856 5853 5850 5846 5842 5839 5835 5832 5828 5823 5819 5816
5854 5855 5857 5859 5860 5862 5864 5866 5867 5868 5869 5870 5870 5871 5871 5871 5871 5870 5870 5870 5870 5869 5868 5867 5866 5865 5864 5862 5860 5857 5855 5852 5849 5845 5841 5837 5833 5829 5825 5821 5816 5811 5807
5852 5854 5856 5857 5859 5861 5862 5864 5865 5867 5867 5868 5868 5869 5869 5869 5869 5869 5868 5868 5867 5866 5866 5865 5863 5862 5860 5858 5856 5853 5850 5848 5844 5840 5836 5832 5827 5822 5817 5813 5808 5803 5798
5850 5852 5854 5856 5857 5859 5860 5862 5864 5865 5865 5865 5865 5866 5866 5866 5866 5866 5866 5865 5865 5864 5863 5862 5860 5859 5857 5855 5852 5849 5846 5843 5839 5836 5831 5826 5821 5815 5810 5804 5799 5793 5787
5847 5849 5851 5853 5855 5856 5858 5860 5861 5861 5861 5862 5862 5862 5862 5862 5863 5863 5863 5862 5862 5861 5861 5859 5857 5855 5853 5850 5847 5844 5841 5837 5834 5829 5825 5819 5814 5808 5802 5796 5790 5783 5777
5844 5846 5848 5849 5851 5853 5854 5855 5856 5857 5857 5858 5858 5859 5859 5859 5859 5859 5859 5859 5858 5858 5857 5855 5853 5851 5849 5846 5843 5840 5836 5832 5827 5823 5818 5812 5806 5800 5794 5788 5781 5774 5768
5841 5842 5844 5846 5848 5849 5850 5850 5851 5852 5853 5853 5854 5854 5854 5855 5855 5855 5855 5855 5854 5854 5853 5851 5849 5847 5845 5842 5838 5835 5831 5826 5821 5816 5811 5805 5799 5792 5786 5780 5773 5767 5762
5836 5839 5841 5843 5844 5845 5846 5846 5847 5847 5848 5848 5848 5849 5849 5850 5850 5850 5851 5850 5850 5849 5848 5846 5845 5842 5840 5837 5833 5829 5825 5820 5815 5810 5805 5798 5791 5784 5778 5772 5767 5762 5758
5832 5835 5837 5839 5840 5841 5842 5842 5843 5843 5843 5843 5844 5844 5844 5845 5845 5845 5846 5845 5845 5844 5843 5842 5840 5838 5835 5832 5828 5823 5819 5814 5809 5804 5797 5791 5784 5778 5773 5768 5763 5758 5754
5827 5830 5833 5835 5836 5837 5838 5838 5838 5838 5838 5838 5838 5839 5839 5839 5840 5840 5841 5840 5840 5839 5838 5837 5835 5833 5829 5826 5822 5818 5813 5808 5803 5797 5790 5784 5778 5773 5768 5764 5759 5755 5751
5821 5825 5828 5831 5832 5833 5834 5834 5834 5834 5834 5833 5833 5834 5834 5835 5835 5835 5835 5835 5835 5834 5833 5831 5829 5827 5824 5820 5817 5812 5807 5802 5796 5790 5783 5777 5771 5768 5764 5760 5756 5752 5749
5816 5820 5823 5826 5828 5829 5830 5830 5830 5830 5830 5829 5829 5829 5829 5829 5829 5829 5829 5829 5830 5829 5827 5826 5824 5821 5818 5815 5811 5806 5801 5796 5790 5784 5777 5770 5766 5763 5760 5757 5752 5749 5746
5810 5815 5818 5821 5823 5824 5825 5826 5826 5826 5825 5825 5825 5825 5824 5824 5824 5823 5823 5823 5823 5822 5821 5820 5817 5815 5812 5809 5805 5801 5796 5790 5784 5777 5769 5765 5762 5759 5756 5753 5749 5747 5744
5804 5809 5813 5815 5817 5819 5821 5821 5821 5821 5821 5820 5820 5820 5819 5819 5818 5818 5818 5817 5817 5816 5815 5813 5811 5809 5805 5802 5798 5794 5790 5785 5777 5770 5764 5761 5758 5756 5753 5750 5746 5743 5741
5797 5802 5806 5809 5812 5813 5815 5816 5816 5816 5816 5815 5815 5814 5814 5814 5813 5812 5812 5812 5811 5809 5808 5807 5804 5802 5799 5795 5792 5788 5783 5778 5771 5765 5761 5758 5755 5752 5750 5746 5742 5740 5738
5790 5795 5799 5802 5805 5807 5808 5809 5810 5811 5811 5810 5809 5809 5809 5808 5808 5807 5806 5805 5804 5803 5802 5800 5797 5795 5792 5788 5785 5780 5776 5771 5766 5762 5758 5755 5751 5748 5746 5744 5740 5737 5735
5783 5789 5792 5796 5798 5800 5801 5803 5804 5804 5804 5804 5804 5804 5803 5802 5802 5800 5799 5798 5797 5796 5794 5792 5790 5788 5785 5782 5778 5774 5769 5765 5761 5758 5755 5753 5749 5745 5742 5740 5737 5734 5731
5775 5780 5785 5788 5791 5792 5795 5796 5797 5797 5798 5798 5798 5797 5796 5796 5795 5794 5792 5791 5790 5789 5787 5786 5783 5781 5778 5774 5771 5766 5762 5759 5757 5754 5751 5747 5745 5742 5739 5736 5734 5731 5728